Regional Weather Roundup
Issued by NWS Tiyan, Guam

Home | Current Version | Previous Version | Text Only | Print | Product List | Glossary On
Versions: 1 2 3 4 5 6 7 8 9 10 11 12 13 14 15 16 17 18 19 20 21 22 23 24 25 26 27 28
000
ASGM40 PGUM 260012
RWRGUM
WEATHER ROUNDUP FOR THE MARIANAS
NATIONAL WEATHER SERVICE TIYAN GU
1000 AM CHST SUN OCT 26 2014

GUZ001>004-260100-
MARIANA ISLANDS-

CITY           SKY/WX    TMP DP  RH WIND       PRES   REMARKS
GUAM AIRPORT   MOSUNNY   84  79  84 E7        29.92F HX  96
ANDERSEN AFB   PTSUNNY   82  77  83 E13       29.93S HX  91
ROTA AIRPORT   PTSUNNY   82  77  83 E13G20    29.93R HX  91
TINIAN AP      PTSUNNY   79  77  94 E10       29.90S
SAIPAN AP      PTSUNNY   81  75  83 E18G28    29.92S

$$




USA.gov is the U.S. government's official web portal to all federal, state and local government web resources and services.